Location: ???????
(55.4362°N, 38.1183°E)
Time: 01:49:15
(UTC+00:00)

Cosmos 1932 - Pass Details

Date: 28 October 2021
Orbit: 943 x 987 km, 65.0° (Epoch: 01 December)

Event Time Altitude Azimuth Distance (km) Brightness Sun altitude
Rises 17:22:14 0° 306° (NW) 3,622 8.6 -29.3°
Reaches altitude 10° 17:26:49 10° 275° (W) 2,677 7.6 -29.9°
Maximum altitude 17:28:42 11° 257° (WSW) 2,573 7.3 -30.1°
Drops below altitude 10° 17:30:35 10° 240° (WSW) 2,679 7.2 -30.4°
Sets 17:35:12 0° 209° (SSW) 3,629 7.6 -31.0°
